CZ-3B DEB, 42458

Orbit data source: Space-Track

CZ-3B DEB, 42458 is space debris in HEO originally from a launch on Sat, 04 Sep 2010 UTC launched from the Xichang Space Center, China (XSC). Debris objects in space refer to the collection of defunct objects orbiting the Earth. Examples of debris include non-operational satellites, rocket bodies, and fragments generated from explosions, collisions, or faulty payload assembly.

Loading next visibility...
Identifier
42458, 2010-042Z
Orbit
HEO
Country
Flag of CNCN / PRC
Related business
Manufacturer
CALT
Mission
Spacecraft
Bus & Motor
Unknown
Mass
Unknown
Launch date (UTC)
2010-09-04 (16 years ago)
Launch vehicle
Unknown
Launch site
Xichang Space Center, China (XSC)
Object type
Payload
Rocket body
Debris
Shape & HBR
Unknown shape, 0.1 m
Radar Cross Section
Medium (>0.1 m² and <1 m²)

Expand to show TLE details & history
Last TLE update: 3 days ago

TLE from 3 days ago
0 CZ-3B DEB
1 42458U 10042Z   26117.42226143  .00000394  00000-0  12561-1 0  9993
2 42458  30.1061 266.0859 7511089 209.1609  70.7448  1.81285820 75557
Epoch: 2026-04-27T10:08Z
TLE epoch observation values (Epoch: 2026-04-27T10:08:03.387Z)
Latitude
-0.00009°
Longitude
-101.38614°
Altitude
29,641.537 km
Speed
2.847 km/s
True Right ascension
17h 44m 09s
True Declination
0° 00' 00"
Sunlit
Object was in daylight at epoch
Visualization orbit readout
Latitude
Unknown
Longitude
Unknown
Altitude
Unknown
Speed
Unknown
Apparent Right ascension
Unknown
Apparent Declination
Unknown
Sunlit
N/A
Visualization observer readout
Local Sidereal Time
00:54:44
Azimuth
Unknown
Elevation
Unknown
Doppler factor
Unknown
Orbital elements
Apogee altitude
43,379.221 km
Perigee altitude
694.047 km
Semi-major axis
28,414.771 km
Eccentricity
0.75111
Inclination
30.1061°
RAAN
266.0859°
Arg. of periapsis
209.1609°
True anomaly
150.91515°
Mean anomaly
70.7448°
Eccentric anomaly
110.93835°
Mean motion
0.45313 °/min
Orbital period
794.47 mins
BSTAR
0.012561
Loading maneuver chart data...
Computing Atmospheric mass density...
Loading historical data...
Loading historical data...
Loading historical data...
Loading historical data...
Loading historical data...
Loading historical data...
Loading historical data...

Documentation

Showing up to 5 results
|